Location: Erfurt
(50.9688°N, 11.0193°E)
Time: 11:15:26
(UTC+02:00)

ISS - Visible Passes

Search period start: 13 May 2021 00:00
Search period end: 23 May 2021 00:00
Orbit: 417 x 422 km, 51.6° (Epoch: 13 May)

Date Brightness Start Highest point End Pass type
(mag) Time Alt. Az. Time Alt. Az. Time Alt. Az.
13 May -1.2 00:32:07 13° E 00:32:07 13° E 00:32:32 10° E visible
13 May -3.7 02:05:02 43° W 02:06:01 78° N 02:09:25 10° E visible
13 May -3.9 03:39:30 10° WNW 03:42:53 73° SSW 03:46:15 10° ESE visible
14 May -3.8 01:18:38 81° NNE 01:18:38 81° NNE 01:21:57 10° E visible
14 May -3.9 02:52:03 10° W 02:55:27 87° SSW 02:58:50 10° ESE visible
14 May -2.9 04:29:02 10° W 04:32:02 30° SSW 04:35:02 10° SSE visible
14 May -3.0 22:51:33 10° SSW 22:54:31 29° SSE 22:55:36 24° ESE visible
15 May -3.9 00:27:44 10° WSW 00:31:06 87° SSE 00:34:30 10° E visible
15 May -3.8 02:04:37 10° W 02:08:00 83° N 02:11:23 10° E visible
15 May -3.4 03:41:29 10° W 03:44:42 41° SSW 03:47:54 10° SE visible
15 May -2.5 22:04:38 10° SSW 22:07:14 21° SE 22:09:51 10° E visible
15 May -3.9 23:40:19 10° WSW 23:43:41 72° SSE 23:47:03 10° ENE visible
16 May -3.7 01:17:09 10° W 01:20:32 78° N 01:23:55 10° E visible
16 May -3.8 02:54:00 10° W 02:57:20 56° SSW 03:00:39 10° ESE visible
16 May -2.0 04:31:37 10° WSW 04:33:37 15° SW 04:35:36 10° S visible
16 May -3.7 22:52:58 10° SW 22:56:16 55° SSE 22:59:35 10° E visible
17 May -3.7 00:29:41 10° W 00:33:04 78° N 00:36:28 10° E visible
17 May -3.9 02:06:33 10° WNW 02:09:55 72° SSW 02:13:18 10° ESE visible
17 May -2.5 03:43:44 10° W 03:46:22 21° SW 03:49:00 10° SSE visible
17 May -3.3 22:05:42 10° SW 22:08:54 41° SSE 22:12:06 10° E visible
17 May -3.8 23:42:13 10° W 23:45:36 83° N 23:48:59 10° E visible
18 May -3.9 01:19:06 10° W 01:22:29 87° SSW 01:22:56 65° ESE visible
18 May -3.8 22:54:46 10° WSW 22:58:08 87° SSE 23:01:32 10° E visible
19 May -3.8 00:31:39 10° W 00:35:02 83° N 00:36:32 31° E visible
19 May -1.7 02:08:31 10° W 02:09:26 17° W 02:09:26 17° W visible
19 May -3.8 22:07:21 10° WSW 22:10:42 72° SSE 22:14:04 10° ENE visible
19 May -3.7 23:44:11 10° W 23:47:33 78° N 23:50:21 14° E visible
20 May -2.8 01:21:01 10° W 01:23:16 36° W 01:23:16 36° W visible
20 May -3.6 22:56:42 10° W 23:00:05 78° N 23:03:28 10° E visible
21 May -3.9 00:33:34 10° WNW 00:36:56 72° SSW 00:37:12 67° SSE visible
21 May -3.7 22:09:14 10° W 22:12:37 83° N 22:16:00 10° E visible
21 May -3.9 23:46:07 10° W 23:49:30 87° SSW 23:51:10 28° ESE visible
22 May -1.6 01:23:05 10° W 01:24:06 17° W 01:24:06 17° W visible
22 May -3.7 22:58:39 10° W 23:02:02 83° N 23:05:10 12° E visible
